QPF
0.02 0.02 0.01 0.01 0.01 0.01 0.01 0.02 0.02 0.02 0.01 0.02 0.03 0.03 0.03 0.03 0.03 0.03 0.03 0.03 0.03 0.03 0.02 0.02 0.03 0.04 0.04 0.05 0.05 0.05 0.05 0.06 0.07 0.06 0.07 0.07 0.06 0.04 0.03 0.02 0.03 0.03 0.03
0.02 0.01 0.01 0.01 0.01 0.01 0.02 0.02 0.02 0.02 0.02 0.02 0.02 0.03 0.03 0.03 0.03 0.02 0.02 0.02 0.02 0.02 0.02 0.02 0.02 0.02 0.02 0.03 0.03 0.03 0.04 0.04 0.04 0.03 0.04 0.04 0.03 0.03 0.03 0.03 0.02 0.02 0.03
0.02 0.01 0.01 0.02 0.01 0.01 0.01 0.02 0.02 0.02 0.02 0.03 0.03 0.03 0.03 0.03 0.03 0.03 0.02 0.02 0.02 0.01 0.02 0.02 0.01 0.02 0.02 0.02 0.03 0.03 0.03 0.03 0.03 0.02 0.02 0.02 0.02 0.02 0.02 0.03 0.03 0.03 0.02
0.02 0.02 0.01 0.01 0.01 0.01 0.01 0.01 0.01 0.01 0.02 0.02 0.03 0.03 0.03 0.03 0.03 0.03 0.03 0.02 0.02 0.02 0.02 0.01 0.02 0.02 0.02 0.02 0.02 0.02 0.03 0.02 0.02 0.02 0.01 0.02 0.02 0.03 0.03 0.04 0.04 0.03 0.02
0.01 0.01 0.01 0.01 0.01 0.01 0.01 0.01 0.01 0.02 0.02 0.02 0.02 0.02 0.03 0.03 0.03 0.03 0.03 0.03 0.03 0.03 0.02 0.02 0.02 0.02 0.02 0.01 0.01 0.02 0.03 0.04 0.04 0.03 0.03 0.04 0.04 0.04 0.05 0.04 0.03 0.03 0.02
0.02 0.01 0.01 0.01 0.02 0.01 0.01 0.01 0.01 0.01 0.02 0.01 0.02 0.03 0.04 0.04 0.03 0.03 0.03 0.02 0.03 0.02 0.02 0.02 0.02 0.01 0.01 0.01 0.01 0.01 0.02 0.03 0.04 0.05 0.05 0.06 0.06 0.05 0.06 0.06 0.04 0.03 0.03
0.03 0.02 0.03 0.03 0.03 0.02 0.02 0.02 0.02 0.01 0.02 0.02 0.02 0.02 0.03 0.05 0.05 0.04 0.03 0.02 0.02 0.02 0.01 0.01 0.01 0.01 0.01 0.01 0.01 0.01 0.01 0.01 0.02 0.03 0.04 0.05 0.07 0.07 0.08 0.08 0.07 0.03 0.03
0.05 0.04 0.03 0.04 0.03 0.03 0.03 0.03 0.03 0.03 0.03 0.03 0.03 0.04 0.04 0.04 0.04 0.04 0.04 0.03 0.03 0.02 0.02 0.02 0.02 0.01 0.01 0.02 0.02 0.01 0.01 0.01 0.02 0.02 0.03 0.03 0.04 0.06 0.08 0.09 0.09 0.07 0.05
0.05 0.06 0.05 0.03 0.02 0.02 0.02 0.02 0.02 0.03 0.04 0.04 0.04 0.05 0.05 0.06 0.06 0.06 0.05 0.05 0.05 0.04 0.03 0.03 0.03 0.02 0.02 0.02 0.02 0.03 0.03 0.02 0.03 0.04 0.04 0.03 0.03 0.04 0.07 0.08 0.08 0.07 0.04
0.02 0.02 0.03 0.02 0.01 0.01 0.02 0.02 0.02 0.04 0.06 0.05 0.04 0.05 0.05 0.05 0.06 0.08 0.09 0.09 0.09 0.09 0.09 0.08 0.07 0.05 0.04 0.03 0.02 0.02 0.02 0.02 0.02 0.02 0.02 0.02 0.03 0.04 0.06 0.07 0.09 0.09 0.07
0.01 0.01 0.01 0.01 0.01 0.01 0.01 0.02 0.03 0.04 0.05 0.05 0.05 0.06 0.06 0.07 0.06 0.07 0.08 0.10 0.14 0.15 0.15 0.13 0.10 0.09 0.07 0.06 0.05 0.04 0.04 0.03 0.02 0.02 0.02 0.03 0.03 0.04 0.04 0.06 0.07 0.10 0.12
0.01 0.01 0.01 0.00 0.00 0.00 0.01 0.01 0.03 0.04 0.04 0.05 0.05 0.06 0.07 0.09 0.09 0.09 0.08 0.08 0.09 0.09 0.10 0.09 0.08 0.07 0.07 0.07 0.07 0.06 0.06 0.05 0.04 0.04 0.04 0.03 0.02 0.03 0.04 0.05 0.06 0.08 0.10
0.01 0.01 0.01 0.00 0.00 0.00 0.00 0.01 0.02 0.03 0.04 0.04 0.03 0.04 0.05 0.07 0.09 0.09 0.07 0.07 0.06 0.05 0.04 0.04 0.04 0.05 0.05 0.05 0.05 0.05 0.05 0.04 0.05 0.05 0.05 0.05 0.04 0.03 0.04 0.05 0.06 0.07 0.08
0.01 0.01 0.01 0.00 0.00 0.00 0.00 0.01 0.01 0.01 0.03 0.05 0.04 0.04 0.05 0.06 0.06 0.06 0.05 0.04 0.04 0.04 0.03 0.04 0.04 0.04 0.04 0.04 0.04 0.04 0.04 0.03 0.04 0.04 0.04 0.04 0.04 0.03 0.03 0.04 0.04 0.05 0.07
0.01 0.01 0.00 0.00 0.00 0.00 0.01 0.01 0.01 0.01 0.02 0.04 0.05 0.06 0.06 0.06 0.05 0.04 0.04 0.03 0.03 0.02 0.02 0.02 0.02 0.02 0.02 0.02 0.02 0.02 0.02 0.03 0.03 0.03 0.03 0.03 0.03 0.03 0.02 0.02 0.03 0.04 0.04
0.01 0.01 0.01 0.01 0.01 0.00 0.01 0.01 0.01 0.01 0.02 0.03 0.04 0.05 0.05 0.05 0.04 0.04 0.04 0.04 0.03 0.03 0.02 0.01 0.01 0.01 0.01 0.01 0.02 0.02 0.02 0.02 0.02 0.04 0.03 0.03 0.03 0.03 0.02 0.02 0.02 0.02 0.03
0.00 0.00 0.00 0.00 0.01 0.01 0.01 0.01 0.01 0.01 0.02 0.03 0.03 0.04 0.05 0.04 0.03 0.02 0.02 0.03 0.03 0.03 0.02 0.01 0.01 0.01 0.01 0.01 0.01 0.02 0.02 0.02 0.02 0.03 0.03 0.03 0.02 0.02 0.02 0.02 0.02 0.02 0.02
0.00 0.00 0.00 0.00 0.01 0.01 0.01 0.01 0.01 0.01 0.02 0.02 0.02 0.03 0.04 0.05 0.03 0.01 0.01 0.02 0.02 0.02 0.01 0.01 0.01 0.01 0.01 0.01 0.01 0.01 0.02 0.02 0.02 0.02 0.02 0.02 0.02 0.03 0.03 0.03 0.03 0.03 0.04
0.01 0.00 0.00 0.00 0.01 0.01 0.01 0.01 0.01 0.02 0.02 0.02 0.02 0.02 0.03 0.03 0.03 0.01 0.01 0.01 0.01 0.01 0.01 0.02 0.01 0.01 0.02 0.02 0.02 0.02 0.02 0.02 0.02 0.02 0.02 0.02 0.02 0.03 0.03 0.03 0.03 0.03 0.04
0.01 0.00 0.00 0.00 0.01 0.01 0.01 0.01 0.02 0.02 0.02 0.02 0.02 0.02 0.02 0.02 0.01 0.01 0.01 0.01 0.01 0.01 0.01 0.01 0.01 0.01 0.02 0.02 0.03 0.03 0.02 0.02 0.03 0.03 0.03 0.02 0.03 0.04 0.04 0.05 0.05 0.05 0.05
0.01 0.01 0.01 0.01 0.01 0.01 0.02 0.02 0.03 0.04 0.04 0.04 0.03 0.03 0.02 0.02 0.01 0.01 0.01 0.01 0.01 0.01 0.01 0.01 0.01 0.01 0.01 0.02 0.03 0.03 0.02 0.02 0.03 0.04 0.05 0.04 0.04 0.04 0.04 0.05 0.05 0.05 0.05
0.04 0.04 0.04 0.03 0.03 0.03 0.03 0.04 0.05 0.05 0.05 0.05 0.04 0.03 0.02 0.01 0.01 0.01 0.01 0.01 0.01 0.01 0.01 0.01 0.01 0.01 0.01 0.02 0.02 0.02 0.02 0.02 0.03 0.04 0.06 0.08 0.06 0.05 0.05 0.04 0.04 0.04 0.05
0.05 0.07 0.10 0.11 0.11 0.09 0.06 0.05 0.06 0.07 0.08 0.07 0.06 0.05 0.04 0.03 0.02 0.01 0.01 0.01 0.01 0.01 0.01 0.02 0.02 0.02 0.02 0.03 0.03 0.03 0.03 0.03 0.03 0.04 0.04 0.05 0.06 0.06 0.05 0.04 0.04 0.04 0.04
0.02 0.03 0.05 0.06 0.07 0.07 0.06 0.04 0.03 0.04 0.05 0.06 0.07 0.07 0.07 0.06 0.04 0.02 0.01 0.01 0.02 0.02 0.02 0.02 0.03 0.03 0.04 0.04 0.04 0.04 0.04 0.05 0.05 0.05 0.04 0.04 0.04 0.04 0.05 0.05 0.05 0.04 0.04
0.01 0.01 0.01 0.01 0.02 0.02 0.03 0.02 0.02 0.02 0.02 0.02 0.03 0.04 0.05 0.05 0.05 0.04 0.03 0.02 0.02 0.02 0.03 0.03 0.04 0.05 0.06 0.06 0.06 0.06 0.07 0.07 0.07 0.06 0.05 0.04 0.04 0.05 0.05 0.04 0.04 0.04 0.04
0.01 0.00 0.01 0.01 0.01 0.01 0.02 0.02 0.02 0.02 0.02 0.02 0.02 0.03 0.04 0.04 0.04 0.05 0.05 0.05 0.04 0.04 0.04 0.05 0.06 0.06 0.07 0.07 0.07 0.08 0.08 0.07 0.06 0.05 0.04 0.04 0.04 0.04 0.05 0.04 0.03 0.03 0.03
MSLP
1008.56 1008.73 1008.92 1009.08 1009.19 1009.22 1009.17 1009.08 1008.96 1008.86 1008.83 1008.88 1009.04 1009.29 1009.62 1010.00 1010.37 1010.72 1011.01 1011.24 1011.40 1011.51 1011.59 1011.68 1011.81 1011.99 1012.24 1012.59 1013.01 1013.50 1014.04 1014.62 1015.22 1015.83 1016.41 1016.97 1017.49 1017.97 1018.40 1018.79 1019.14 1019.45 1019.71
1008.65 1008.77 1008.91 1009.05 1009.13 1009.16 1009.11 1009.02 1008.89 1008.78 1008.72 1008.74 1008.86 1009.08 1009.39 1009.76 1010.15 1010.54 1010.89 1011.19 1011.41 1011.58 1011.71 1011.81 1011.91 1012.04 1012.22 1012.47 1012.80 1013.21 1013.69 1014.23 1014.82 1015.42 1016.04 1016.63 1017.19 1017.70 1018.16 1018.55 1018.89 1019.18 1019.43
1008.71 1008.79 1008.91 1009.02 1009.10 1009.13 1009.09 1009.01 1008.89 1008.77 1008.68 1008.67 1008.74 1008.90 1009.16 1009.50 1009.89 1010.30 1010.70 1011.07 1011.39 1011.64 1011.84 1011.99 1012.12 1012.24 1012.38 1012.57 1012.82 1013.14 1013.54 1014.02 1014.57 1015.15 1015.76 1016.37 1016.94 1017.47 1017.93 1018.32 1018.65 1018.91 1019.13
1008.70 1008.77 1008.87 1008.98 1009.06 1009.09 1009.08 1009.01 1008.90 1008.78 1008.67 1008.61 1008.61 1008.71 1008.90 1009.18 1009.54 1009.95 1010.38 1010.82 1011.23 1011.59 1011.90 1012.14 1012.34 1012.50 1012.64 1012.80 1012.99 1013.24 1013.57 1013.98 1014.46 1015.00 1015.59 1016.18 1016.75 1017.27 1017.73 1018.11 1018.42 1018.65 1018.84
1008.61 1008.68 1008.77 1008.87 1008.96 1009.01 1009.02 1008.97 1008.88 1008.76 1008.62 1008.51 1008.45 1008.45 1008.55 1008.75 1009.04 1009.43 1009.88 1010.37 1010.87 1011.36 1011.79 1012.17 1012.47 1012.72 1012.91 1013.07 1013.24 1013.44 1013.71 1014.04 1014.46 1014.95 1015.48 1016.05 1016.60 1017.12 1017.57 1017.94 1018.22 1018.42 1018.57
1008.45 1008.50 1008.58 1008.68 1008.77 1008.84 1008.87 1008.85 1008.77 1008.65 1008.49 1008.33 1008.18 1008.09 1008.09 1008.18 1008.40 1008.73 1009.18 1009.71 1010.30 1010.90 1011.48 1012.01 1012.46 1012.82 1013.10 1013.31 1013.50 1013.68 1013.89 1014.17 1014.52 1014.95 1015.44 1015.96 1016.49 1016.99 1017.43 1017.79 1018.06 1018.24 1018.34
1008.22 1008.25 1008.31 1008.39 1008.48 1008.56 1008.61 1008.60 1008.54 1008.42 1008.24 1008.03 1007.81 1007.62 1007.51 1007.49 1007.61 1007.89 1008.31 1008.87 1009.53 1010.25 1010.97 1011.66 1012.27 1012.79 1013.18 1013.48 1013.71 1013.90 1014.09 1014.32 1014.62 1014.99 1015.42 1015.91 1016.41 1016.89 1017.32 1017.67 1017.92 1018.08 1018.16
1007.95 1007.94 1007.97 1008.03 1008.10 1008.18 1008.23 1008.25 1008.20 1008.08 1007.89 1007.64 1007.36 1007.08 1006.86 1006.75 1006.77 1006.98 1007.37 1007.94 1008.66 1009.48 1010.35 1011.20 1011.97 1012.64 1013.18 1013.58 1013.88 1014.10 1014.29 1014.49 1014.73 1015.05 1015.43 1015.87 1016.34 1016.80 1017.22 1017.56 1017.81 1017.96 1018.02
1007.66 1007.61 1007.60 1007.61 1007.66 1007.72 1007.78 1007.81 1007.78 1007.67 1007.48 1007.20 1006.88 1006.55 1006.25 1006.05 1006.01 1006.15 1006.51 1007.09 1007.86 1008.76 1009.74 1010.73 1011.65 1012.47 1013.14 1013.65 1014.02 1014.28 1014.48 1014.66 1014.87 1015.12 1015.45 1015.84 1016.26 1016.70 1017.10 1017.44 1017.69 1017.84 1017.88
1007.40 1007.29 1007.21 1007.18 1007.20 1007.24 1007.30 1007.34 1007.32 1007.24 1007.07 1006.81 1006.48 1006.12 1005.79 1005.55 1005.45 1005.56 1005.89 1006.47 1007.26 1008.22 1009.28 1010.38 1011.42 1012.36 1013.14 1013.74 1014.18 1014.48 1014.68 1014.84 1015.01 1015.21 1015.47 1015.80 1016.17 1016.57 1016.94 1017.27 1017.51 1017.66 1017.70
1007.15 1006.98 1006.85 1006.77 1006.74 1006.77 1006.82 1006.88 1006.89 1006.85 1006.72 1006.51 1006.21 1005.88 1005.56 1005.32 1005.22 1005.31 1005.63 1006.20 1007.00 1007.99 1009.10 1010.24 1011.36 1012.36 1013.22 1013.88 1014.36 1014.68 1014.89 1015.02 1015.14 1015.28 1015.48 1015.73 1016.04 1016.38 1016.72 1017.02 1017.25 1017.40 1017.45
1006.93 1006.70 1006.51 1006.37 1006.31 1006.32 1006.37 1006.44 1006.51 1006.53 1006.48 1006.34 1006.13 1005.87 1005.61 1005.42 1005.35 1005.45 1005.78 1006.34 1007.13 1008.11 1009.21 1010.36 1011.48 1012.50 1013.38 1014.06 1014.55 1014.87 1015.06 1015.16 1015.23 1015.30 1015.42 1015.60 1015.84 1016.12 1016.40 1016.67 1016.88 1017.03 1017.08
1006.70 1006.42 1006.17 1005.99 1005.89 1005.88 1005.94 1006.04 1006.16 1006.26 1006.30 1006.28 1006.19 1006.05 1005.91 1005.80 1005.80 1005.95 1006.29 1006.84 1007.60 1008.53 1009.57 1010.67 1011.74 1012.72 1013.56 1014.21 1014.68 1014.97 1015.13 1015.19 1015.21 1015.23 1015.28 1015.39 1015.55 1015.76 1015.99 1016.21 1016.40 1016.53 1016.58
1006.44 1006.11 1005.82 1005.59 1005.46 1005.43 1005.48 1005.62 1005.80 1005.98 1006.15 1006.26 1006.33 1006.34 1006.34 1006.37 1006.46 1006.67 1007.04 1007.57 1008.27 1009.12 1010.07 1011.06 1012.02 1012.91 1013.66 1014.25 1014.67 1014.92 1015.04 1015.07 1015.05 1015.02 1015.02 1015.07 1015.16 1015.31 1015.48 1015.66 1015.81 1015.92 1015.98
1006.12 1005.74 1005.40 1005.14 1004.97 1004.91 1004.97 1005.13 1005.37 1005.64 1005.93 1006.19 1006.42 1006.61 1006.78 1006.95 1007.16 1007.44 1007.83 1008.34 1008.97 1009.71 1010.53 1011.37 1012.19 1012.94 1013.58 1014.08 1014.43 1014.64 1014.74 1014.75 1014.71 1014.66 1014.63 1014.64 1014.69 1014.79 1014.91 1015.04 1015.17 1015.26 1015.31
1005.70 1005.29 1004.91 1004.60 1004.39 1004.31 1004.36 1004.54 1004.82 1005.18 1005.57 1005.98 1006.37 1006.74 1007.07 1007.39 1007.71 1008.06 1008.47 1008.95 1009.50 1010.12 1010.79 1011.47 1012.12 1012.73 1013.24 1013.65 1013.94 1014.12 1014.21 1014.22 1014.20 1014.16 1014.13 1014.14 1014.17 1014.24 1014.33 1014.43 1014.52 1014.60 1014.64
1005.19 1004.74 1004.32 1003.97 1003.72 1003.61 1003.65 1003.83 1004.15 1004.57 1005.06 1005.59 1006.13 1006.64 1007.12 1007.57 1008.00 1008.42 1008.84 1009.28 1009.74 1010.24 1010.76 1011.28 1011.78 1012.24 1012.65 1012.97 1013.22 1013.39 1013.50 1013.55 1013.57 1013.58 1013.60 1013.62 1013.67 1013.73 1013.80 1013.88 1013.95 1014.00 1014.02
1004.57 1004.10 1003.65 1003.27 1002.99 1002.86 1002.88 1003.06 1003.40 1003.86 1004.43 1005.05 1005.69 1006.33 1006.93 1007.49 1007.99 1008.45 1008.88 1009.28 1009.67 1010.06 1010.44 1010.82 1011.19 1011.54 1011.86 1012.14 1012.38 1012.57 1012.72 1012.84 1012.94 1013.02 1013.09 1013.16 1013.24 1013.31 1013.38 1013.44 1013.49 1013.52 1013.52
1003.88 1003.40 1002.95 1002.55 1002.26 1002.11 1002.13 1002.31 1002.66 1003.15 1003.76 1004.44 1005.16 1005.87 1006.55 1007.18 1007.74 1008.22 1008.64 1009.01 1009.33 1009.63 1009.92 1010.20 1010.48 1010.75 1011.03 1011.29 1011.55 1011.79 1012.01 1012.21 1012.39 1012.56 1012.70 1012.83 1012.94 1013.03 1013.10 1013.15 1013.17 1013.17 1013.15
1003.15 1002.69 1002.25 1001.87 1001.60 1001.46 1001.49 1001.68 1002.04 1002.54 1003.17 1003.88 1004.63 1005.39 1006.11 1006.76 1007.34 1007.84 1008.24 1008.58 1008.86 1009.10 1009.33 1009.55 1009.78 1010.03 1010.30 1010.59 1010.88 1011.19 1011.49 1011.78 1012.04 1012.28 1012.49 1012.66 1012.80 1012.90 1012.96 1012.99 1012.99 1012.96 1012.90
1002.41 1002.00 1001.62 1001.31 1001.09 1001.00 1001.05 1001.27 1001.64 1002.15 1002.78 1003.49 1004.24 1005.00 1005.72 1006.37 1006.94 1007.43 1007.82 1008.14 1008.39 1008.61 1008.81 1009.02 1009.25 1009.52 1009.81 1010.15 1010.51 1010.88 1011.26 1011.62 1011.95 1012.24 1012.48 1012.67 1012.81 1012.90 1012.94 1012.94 1012.90 1012.84 1012.75
1001.71 1001.40 1001.12 1000.91 1000.78 1000.77 1000.88 1001.14 1001.53 1002.05 1002.66 1003.35 1004.08 1004.80 1005.48 1006.10 1006.65 1007.11 1007.48 1007.79 1008.04 1008.26 1008.48 1008.72 1008.99 1009.30 1009.66 1010.05 1010.48 1010.92 1011.34 1011.75 1012.11 1012.41 1012.65 1012.83 1012.93 1012.98 1012.98 1012.94 1012.86 1012.76 1012.64
1001.12 1000.94 1000.80 1000.71 1000.71 1000.80 1001.00 1001.32 1001.73 1002.25 1002.85 1003.49 1004.16 1004.82 1005.45 1006.01 1006.51 1006.94 1007.30 1007.60 1007.87 1008.12 1008.39 1008.68 1009.02 1009.40 1009.83 1010.29 1010.77 1011.25 1011.71 1012.12 1012.47 1012.75 1012.95 1013.07 1013.11 1013.10 1013.04 1012.94 1012.82 1012.68 1012.53
1000.70 1000.66 1000.67 1000.74 1000.88 1001.09 1001.38 1001.75 1002.19 1002.70 1003.27 1003.86 1004.45 1005.04 1005.58 1006.08 1006.52 1006.91 1007.26 1007.57 1007.86 1008.17 1008.50 1008.87 1009.28 1009.75 1010.25 1010.77 1011.30 1011.80 1012.25 1012.64 1012.95 1013.17 1013.29 1013.32 1013.29 1013.19 1013.06 1012.90 1012.73 1012.56 1012.40
1000.48 1000.59 1000.76 1000.98 1001.25 1001.57 1001.94 1002.36 1002.82 1003.31 1003.83 1004.35 1004.86 1005.36 1005.82 1006.24 1006.62 1006.97 1007.30 1007.63 1007.96 1008.32 1008.73 1009.18 1009.68 1010.22 1010.79 1011.36 1011.92 1012.42 1012.86 1013.20 1013.44 1013.58 1013.61 1013.55 1013.42 1013.24 1013.03 1012.81 1012.60 1012.41 1012.24
1000.52 1000.76 1001.05 1001.39 1001.76 1002.17 1002.60 1003.04 1003.50 1003.96 1004.42 1004.86 1005.29 1005.69 1006.06 1006.41 1006.74 1007.06 1007.38 1007.72 1008.09 1008.52 1008.99 1009.52 1010.10 1010.71 1011.34 1011.95 1012.51 1013.01 1013.41 1013.70 1013.87 1013.92 1013.86 1013.71 1013.49 1013.24 1012.96 1012.70 1012.46 1012.25 1012.08
Thickness
5764 5761 5758 5755 5753 5750 5748 5747 5745 5743 5743 5743 5743 5742 5741 5740 5739 5738 5738 5737 5736 5735 5734 5733 5731 5731 5732 5732 5730 5729 5728 5727 5723 5725 5727 5726 5724 5723 5722 5722 5722 5721 5721
5761 5758 5755 5752 5750 5748 5746 5743 5742 5740 5739 5739 5739 5738 5737 5736 5735 5734 5733 5732 5731 5729 5729 5727 5726 5727 5725 5725 5724 5724 5723 5722 5720 5717 5719 5720 5719 5719 5718 5717 5719 5719 5718
5759 5755 5751 5749 5746 5744 5742 5740 5738 5736 5735 5734 5734 5733 5732 5731 5730 5730 5728 5727 5726 5725 5724 5723 5722 5720 5719 5719 5718 5719 5719 5719 5717 5715 5715 5715 5715 5715 5714 5714 5715 5713 5715
5754 5751 5747 5744 5742 5740 5738 5736 5734 5733 5731 5730 5729 5728 5727 5725 5725 5725 5724 5723 5722 5721 5720 5719 5717 5716 5715 5714 5714 5714 5714 5714 5712 5711 5710 5710 5710 5710 5709 5709 5708 5709 5709
5748 5745 5742 5740 5738 5736 5733 5731 5729 5728 5727 5725 5723 5722 5721 5720 5719 5718 5719 5718 5716 5715 5715 5714 5713 5711 5709 5708 5710 5709 5709 5708 5707 5706 5705 5705 5705 5703 5703 5705 5704 5704 5705
5740 5738 5736 5734 5732 5730 5727 5725 5723 5722 5720 5718 5717 5716 5714 5714 5711 5710 5710 5712 5711 5710 5708 5708 5708 5706 5703 5701 5700 5700 5700 5700 5700 5699 5699 5698 5697 5698 5698 5698 5698 5697 5696
5733 5731 5729 5727 5725 5723 5721 5718 5716 5714 5712 5710 5709 5708 5707 5704 5702 5701 5701 5703 5704 5703 5701 5701 5702 5701 5698 5697 5695 5693 5692 5691 5690 5691 5691 5692 5692 5692 5690 5690 5689 5689 5689
5726 5723 5721 5718 5717 5715 5713 5711 5709 5707 5704 5702 5701 5700 5699 5697 5694 5693 5693 5695 5696 5695 5694 5693 5692 5691 5690 5688 5689 5688 5688 5687 5685 5684 5684 5685 5685 5683 5682 5682 5681 5682 5683
5719 5715 5713 5712 5710 5708 5706 5703 5702 5699 5697 5695 5693 5692 5690 5688 5685 5684 5683 5687 5687 5687 5686 5684 5683 5682 5679 5678 5679 5679 5680 5680 5678 5676 5676 5676 5675 5674 5673 5674 5673 5673 5674
5713 5711 5708 5706 5703 5701 5699 5697 5695 5692 5689 5688 5686 5684 5682 5681 5677 5676 5674 5679 5678 5678 5677 5677 5673 5671 5669 5668 5670 5670 5670 5671 5671 5671 5669 5668 5668 5667 5665 5664 5665 5664 5666
5709 5706 5703 5700 5698 5695 5692 5690 5687 5684 5682 5680 5678 5677 5675 5673 5671 5668 5666 5668 5669 5669 5669 5669 5667 5661 5658 5657 5658 5660 5659 5660 5662 5663 5663 5663 5661 5660 5659 5657 5656 5656 5656
5702 5699 5697 5694 5693 5690 5685 5683 5680 5676 5674 5672 5670 5669 5668 5666 5663 5661 5657 5656 5656 5658 5659 5659 5657 5652 5650 5648 5649 5649 5649 5650 5654 5655 5656 5655 5654 5653 5652 5650 5648 5647 5646
5695 5692 5690 5688 5685 5683 5679 5677 5674 5671 5670 5668 5666 5664 5662 5661 5657 5653 5651 5649 5648 5649 5650 5647 5645 5643 5642 5642 5640 5640 5641 5644 5646 5646 5646 5646 5645 5644 5643 5642 5641 5639 5638
5687 5685 5683 5681 5679 5676 5673 5672 5669 5667 5665 5662 5659 5657 5656 5654 5651 5648 5646 5643 5640 5640 5640 5638 5636 5635 5635 5635 5634 5634 5635 5637 5637 5637 5637 5637 5637 5636 5635 5635 5634 5632 5630
5680 5678 5677 5676 5674 5669 5666 5663 5662 5658 5655 5653 5652 5651 5647 5644 5639 5635 5634 5635 5633 5632 5631 5632 5632 5631 5630 5629 5629 5628 5628 5628 5628 5629 5629 5628 5628 5627 5626 5626 5624 5624 5622
5674 5672 5672 5671 5667 5665 5661 5657 5651 5649 5645 5641 5639 5637 5637 5632 5629 5626 5624 5623 5622 5621 5623 5625 5624 5623 5622 5621 5620 5619 5619 5619 5619 5619 5619 5619 5618 5617 5616 5616 5615 5613 5612
5667 5666 5665 5663 5661 5658 5655 5652 5648 5643 5638 5634 5631 5629 5626 5623 5620 5618 5616 5614 5613 5613 5616 5618 5617 5616 5615 5615 5613 5612 5611 5610 5609 5609 5609 5608 5608 5608 5607 5606 5605 5603 5602
5661 5659 5656 5654 5652 5650 5648 5646 5644 5642 5638 5635 5628 5623 5619 5616 5613 5611 5609 5608 5610 5608 5610 5610 5610 5609 5609 5608 5606 5605 5604 5603 5601 5600 5600 5599 5598 5598 5597 5596 5595 5592 5591
5654 5653 5650 5648 5646 5643 5641 5639 5637 5634 5633 5630 5628 5622 5615 5611 5608 5605 5603 5607 5608 5606 5605 5604 5603 5603 5602 5600 5598 5597 5595 5594 5592 5591 5591 5590 5589 5588 5586 5586 5585 5581 5580
5646 5642 5640 5640 5639 5636 5634 5631 5629 5626 5625 5624 5622 5618 5614 5610 5608 5605 5602 5603 5603 5601 5600 5598 5596 5595 5594 5592 5590 5589 5587 5586 5584 5582 5582 5581 5580 5579 5578 5576 5576 5575 5574
5641 5638 5631 5632 5631 5628 5626 5624 5622 5620 5618 5617 5615 5611 5605 5606 5605 5603 5601 5599 5597 5595 5593 5591 5590 5588 5587 5585 5583 5582 5580 5579 5577 5575 5574 5572 5571 5569 5569 5568 5568 5567 5566
5633 5631 5629 5626 5624 5620 5618 5617 5615 5613 5611 5609 5607 5605 5599 5600 5601 5599 5596 5594 5592 5589 5587 5585 5583 5582 5580 5578 5576 5574 5572 5571 5569 5568 5566 5564 5561 5560 5560 5560 5559 5559 5557
5624 5623 5621 5619 5617 5612 5610 5610 5609 5608 5606 5604 5603 5601 5598 5596 5595 5592 5590 5588 5585 5583 5581 5578 5576 5575 5574 5571 5568 5566 5564 5563 5561 5559 5557 5555 5554 5553 5552 5551 5550 5549 5548
5618 5617 5615 5613 5611 5608 5606 5604 5603 5601 5600 5599 5598 5595 5593 5590 5589 5586 5583 5581 5578 5576 5574 5572 5570 5568 5566 5564 5562 5560 5557 5554 5551 5550 5549 5548 5547 5546 5545 5543 5542 5541 5539
5612 5610 5609 5607 5604 5603 5601 5599 5598 5597 5595 5594 5592 5590 5588 5586 5583 5581 5578 5575 5572 5570 5567 5565 5563 5561 5559 5556 5554 5552 5548 5545 5543 5542 5541 5541 5541 5539 5538 5536 5534 5533 5531
5606 5604 5602 5600 5598 5596 5594 5593 5591 5590 5588 5587 5586 5583 5582 5580 5578 5575 5571 5568 5566 5563 5560 5558 5555 5553 5551 5548 5545 5543 5540 5538 5536 5535 5534 5534 5534 5533 5531 5529 5527 5525 5523